Date String (YYYY-MM-DD hh:mm:ss) UTC,Instrument flags,absolute air pressure of the measurement (hPa),sample flow rate (lpm),inlet stack bypass flow (lpm),air temperature of the measurement (°C),ambient temperature measured by the external sensor (°C),aerosol sample conditioner tube jacket temperature (°C),OPC LED temperature (°C),internal box temperature (°C),relative humidity of the measurement (%),span deviation,mass concentration of particles derived from Lorenz-Mie calculation of OPC scattering (μg/m³),mass concentration of particles derived from Lorenz-Mie calculation of OPC scattering (μg/m³),mass concentration of particles derived from Lorenz-Mie calculation of OPC scattering (μg/m³)
DateTimeUTC,F1_M11,P_M11,Q1_M11,Q2_M11,T1_M11,T2_M11,T3_M11,T4_M11,T5_M11,U1_M11,ZSPAN_M11,X2_M11,X0_M11,X1_M11
2024-06-13 21:00:00,SystemResetWarning,0830.3,4.98,000.00,028.6,027.1,000.0,036.7,029.9,023.9,0000.0,0006.65,0024.87,0005.23
2024-06-13 21:01:00,SystemResetWarning,0830.3,5.02,000.00,028.3,025.4,000.0,036.8,029.2,024.2,0000.0,0006.66,0024.18,0005.21
2024-06-13 21:02:00,SystemResetWarning,0830.3,5.00,000.00,028.1,025.7,000.0,036.7,029.2,025.0,0000.0,0006.71,0024.76,0005.21
2024-06-13 21:03:00,SystemResetWarning,0830.2,4.99,000.00,028.1,026.3,000.0,036.6,029.5,024.3,0000.0,0006.71,0024.81,0005.20
2024-06-13 21:04:00,SystemResetWarning,0830.3,5.00,000.00,028.2,026.7,000.0,036.6,029.7,025.2,0000.0,0006.71,0025.05,0005.19
2024-06-13 21:05:00,SystemResetWarning,0830.3,5.01,000.00,028.3,027.1,000.0,036.6,029.9,024.4,0000.0,0006.72,0027.31,0005.18
2024-06-13 21:06:00,SystemResetWarning,0830.3,5.01,000.00,028.3,027.5,000.0,036.6,030.1,024.1,0000.0,0006.72,0028.13,0005.17
2024-06-13 21:07:00,SystemResetWarning,0830.3,5.00,000.00,028.5,027.9,000.0,036.6,030.3,023.9,0000.0,0006.78,0028.74,0005.17
2024-06-13 21:08:00,SystemResetWarning,0830.4,5.00,000.00,028.5,028.1,000.0,036.6,030.4,023.5,0000.0,0006.80,0029.55,0005.15
2024-06-13 21:09:00,SystemResetWarning,0830.3,4.98,000.00,028.5,027.1,000.0,036.7,029.9,023.1,0000.0,0006.84,0030.48,0005.14
2024-06-13 21:10:00,SystemResetWarning,0830.2,5.01,000.00,028.2,025.3,000.0,036.7,029.1,023.0,0000.0,0006.86,0031.60,0005.14
2024-06-13 21:11:00,SystemResetWarning,0830.3,5.02,000.00,028.0,025.6,000.0,036.7,029.1,023.3,0000.0,0006.88,0032.88,0005.13
2024-06-13 21:12:00,SystemResetWarning,0830.4,4.98,000.00,028.1,026.1,000.0,036.6,029.4,023.1,0000.0,0006.99,0032.67,0005.12
2024-06-13 21:13:00,SystemResetWarning,0830.3,5.00,000.00,028.1,026.6,000.0,036.6,029.7,022.8,0000.0,0006.95,0032.99,0005.08
2024-06-13 21:14:00,SystemResetWarning,0830.3,5.01,000.00,028.2,027.0,000.0,036.6,029.9,023.7,0000.0,0006.94,0033.58,0005.06
2024-06-13 21:15:00,SystemResetWarning,0830.3,5.01,000.00,028.3,027.4,000.0,036.6,030.1,023.8,0000.0,0006.89,0032.83,0005.06
2024-06-13 21:16:00,SystemResetWarning,0830.3,4.99,000.00,028.4,027.8,000.0,036.6,030.2,023.2,0000.0,0006.90,0031.92,0005.04
2024-06-13 21:17:00,SystemResetWarning,0830.3,4.99,000.00,028.5,028.1,000.0,036.6,030.4,023.5,0000.0,0006.84,0030.70,0005.03
2024-06-13 21:18:00,SystemResetWarning,0830.3,5.00,000.00,028.6,028.0,000.0,036.6,030.4,023.2,0000.0,0006.81,0030.19,0005.01
2024-06-13 21:19:00,SystemResetWarning,0830.2,5.00,000.00,028.4,026.3,000.0,036.7,029.5,023.3,0000.0,0006.85,0028.87,0005.01
2024-06-13 21:20:00,SystemResetWarning,0830.2,5.00,000.00,028.1,025.3,000.0,036.7,029.0,024.3,0000.0,0006.82,0029.11,0005.01
2024-06-13 21:21:00,SystemResetWarning,0830.2,5.02,000.00,028.0,025.9,000.0,036.7,029.3,024.4,0000.0,0006.80,0028.65,0005.00
2024-06-13 21:22:00,SystemResetWarning,0830.3,4.99,000.00,028.1,026.3,000.0,036.6,029.5,023.9,0000.0,0006.79,0027.11,0004.99
2024-06-13 21:23:00,SystemResetWarning,0830.3,4.99,000.00,028.1,026.8,000.0,036.6,029.8,022.9,0000.0,0006.70,0026.62,0004.99
2024-06-13 21:24:00,SystemResetWarning,0830.3,5.01,000.00,028.2,027.2,000.0,036.5,030.0,022.9,0000.0,0006.72,0025.70,0005.01
2024-06-13 21:25:00,SystemResetWarning,0830.3,5.01,000.00,028.3,027.6,000.0,036.5,030.1,023.3,0000.0,0006.70,0024.76,0005.02
2024-06-13 21:26:00,SystemResetWarning,0830.3,4.99,000.00,028.4,028.0,000.0,036.6,030.3,023.0,0000.0,0006.68,0024.05,0005.01
2024-06-13 21:27:00,SystemResetWarning,0830.3,5.00,000.00,028.5,028.2,000.0,036.6,030.4,022.8,0000.0,0006.64,0022.24,0005.01
2024-06-13 21:28:00,SystemResetWarning,0830.3,4.98,000.00,028.6,027.6,000.0,036.7,030.1,022.3,0000.0,0006.67,0022.15,0005.01
2024-06-13 21:29:00,SystemResetWarning,0830.2,5.00,000.00,028.3,025.8,000.0,036.7,029.2,022.7,0000.0,0006.68,0020.66,0005.03
2024-06-13 21:30:00,SystemResetWarning,0830.3,5.01,000.00,028.1,025.6,000.0,036.7,029.1,022.8,0000.0,0006.64,0020.32,0005.05
2024-06-13 21:31:00,SystemResetWarning,0830.2,4.99,000.00,028.1,026.2,000.0,036.6,029.4,023.5,0000.0,0006.59,0019.78,0005.06
2024-06-13 21:32:00,SystemResetWarning,0830.3,5.01,000.00,028.1,026.6,000.0,036.6,029.7,022.9,0000.0,0006.59,0019.13,0005.07
2024-06-13 21:33:00,SystemResetWarning,0830.3,5.00,000.00,028.2,027.1,000.0,036.6,029.9,022.2,0000.0,0006.59,0020.40,0005.08
2024-06-13 21:34:00,SystemResetWarning,0830.3,5.00,000.00,028.3,027.5,000.0,036.6,030.1,022.6,0000.0,0006.58,0021.55,0005.10
2024-06-13 21:35:00,SystemResetWarning,0830.3,5.01,000.00,028.4,027.8,000.0,036.6,030.2,022.4,0000.0,0006.49,0022.56,0005.10
2024-06-13 21:36:00,SystemResetWarning,0830.3,4.99,000.00,028.5,028.0,000.0,036.6,030.3,022.3,0000.0,0006.44,0024.11,0005.10
2024-06-13 21:37:00,SystemResetWarning,0830.2,4.98,000.00,028.4,026.4,000.0,036.7,029.5,021.6,0000.0,0006.48,0024.63,0005.11
2024-06-13 21:38:00,SystemResetWarning,0830.2,5.02,000.00,028.0,025.1,000.0,036.7,028.9,022.2,0000.0,0006.54,0024.71,0005.13
2024-06-13 21:39:00,SystemResetWarning,0830.2,5.01,000.00,027.9,025.6,000.0,036.6,029.1,022.9,0000.0,0006.54,0023.82,0005.14
2024-06-13 21:40:00,SystemResetWarning,0830.3,4.99,000.00,028.0,026.1,000.0,036.5,029.4,023.4,0000.0,0006.54,0024.69,0005.14
2024-06-13 21:41:00,SystemResetWarning,0830.2,5.00,000.00,028.0,026.6,000.0,036.5,029.6,023.3,0000.0,0006.60,0025.14,0005.12
2024-06-13 21:42:00,SystemResetWarning,0830.3,5.00,000.00,028.1,027.0,000.0,036.5,029.8,023.2,0000.0,0006.62,0024.39,0005.10
2024-06-13 21:43:00,SystemResetWarning,0830.2,5.00,000.00,028.2,027.4,000.0,036.5,030.0,023.1,0000.0,0006.65,0025.36,0005.11
2024-06-13 21:44:00,SystemResetWarning,0830.2,5.00,000.00,028.3,027.7,000.0,036.5,030.2,022.3,0000.0,0006.62,0024.42,0005.10
2024-06-13 21:45:00,SystemResetWarning,0830.3,5.00,000.00,028.4,028.0,000.0,036.5,030.3,022.8,0000.0,0006.67,0023.28,0005.08
2024-06-13 21:46:00,SystemResetWarning,0830.2,4.99,000.00,028.5,027.6,000.0,036.6,030.1,022.5,0000.0,0006.75,0022.64,0005.07
2024-06-13 21:47:00,SystemResetWarning,0830.2,5.00,000.00,028.2,025.6,000.0,036.6,029.1,022.1,0000.0,0006.77,0021.28,0005.06
2024-06-13 21:48:00,SystemResetWarning,0830.1,5.02,000.00,027.9,025.2,000.0,036.6,028.9,022.0,0000.0,0006.80,0021.46,0005.05
2024-06-13 21:49:00,SystemResetWarning,0830.2,4.99,000.00,027.9,025.8,000.0,036.6,029.2,022.3,0000.0,0006.71,0022.04,0005.04
2024-06-13 21:50:00,SystemResetWarning,0830.1,4.99,000.00,028.0,026.3,000.0,036.5,029.5,022.4,0000.0,0006.67,0022.69,0005.02
2024-06-13 21:51:00,SystemResetWarning,0830.2,5.00,000.00,028.1,026.7,000.0,036.4,029.7,021.4,0000.0,0006.66,0022.26,0004.99
2024-06-13 21:52:00,SystemResetWarning,0830.2,5.01,000.00,028.1,027.1,000.0,036.4,029.9,021.0,0000.0,0006.58,0021.25,0004.95
2024-06-13 21:53:00,SystemResetWarning,0830.3,5.00,000.00,028.2,027.5,000.0,036.5,030.1,021.0,0000.0,0006.50,0021.28,0004.92
2024-06-13 21:54:00,SystemResetWarning,0830.2,5.00,000.00,028.3,027.8,000.0,036.5,030.2,022.5,0000.0,0006.43,0020.62,0004.88
2024-06-13 21:55:00,SystemResetWarning,0830.3,4.99,000.00,028.4,027.5,000.0,036.5,030.1,024.0,0000.0,0006.42,0020.51,0004.86
2024-06-13 21:56:00,SystemResetWarning,0830.2,4.99,000.00,028.1,025.6,000.0,036.6,029.1,024.5,0000.0,0006.40,0020.58,0004.85
2024-06-13 21:57:00,SystemResetWarning,0830.2,5.02,000.00,027.9,025.0,000.0,036.6,028.8,024.7,0000.0,0006.39,0020.57,0004.86
2024-06-13 21:58:00,SystemResetWarning,0830.2,5.00,000.00,027.8,025.7,000.0,036.5,029.1,025.5,0000.0,0006.37,0020.82,0004.85
2024-06-13 21:59:00,SystemResetWarning,0830.3,5.00,000.00,027.9,026.1,000.0,036.4,029.3,025.5,0000.0,0006.33,0020.81,0004.85
